When you browse on this site, cookies collect data to enhance your experience and personalize the content and advertising you see.
Visit our Privacy Policy to learn more. By continuing to use the site, you agree to this use of cookies and data.
  • In Romania
  • List of Countries
  • For 7 days
  • Water Temperature
  • Satellite Maps
  • Weather Map
  • Weather Widgets
  • user-avatar
    Login

    Hourly Weather Lezhe

    Today, 24 March, Sunday

    Time Temperature Precipitation Wind Pressure Humidity
    00:00 +12°C° 0 mm 3 mps 741 mmHg 65%
    01:00 +11°C° 0 mm 3 mps 741 mmHg 68%
    02:00 +11°C° 0 mm 3 mps 741 mmHg 68%
    03:00 +10°C° 0 mm 3 mps 741 mmHg 67%
    04:00 +10°C° 0 mm 3 mps 741 mmHg 67%
    05:00 +10°C° 0 mm 3 mps 741 mmHg 65%
    06:00 +11°C° 0 mm 3 mps 741 mmHg 62%
    07:00 +11°C° 0 mm 3 mps 741 mmHg 59%
    08:00 +14°C° 0 mm 3 mps 741 mmHg 51%
    09:00 +17°C° 0 mm 3 mps 741 mmHg 42%
    10:00 +19°C° 0 mm 2 mps 741 mmHg 34%
    11:00 +20°C° 0 mm 2 mps 740 mmHg 32%
    12:00 +21°C° 0 mm 2 mps 740 mmHg 30%
    13:00 +23°C° 0 mm 2 mps 740 mmHg 28%
    14:00 +21°C° 0 mm 2 mps 740 mmHg 30%
    15:00 +21°C° 0 mm 3 mps 739 mmHg 32%
    16:00 +21°C° 0 mm 3 mps 739 mmHg 34%
    17:00 +19°C° 0 mm 3 mps 739 mmHg 41%
    18:00 +17°C° 0 mm 2 mps 739 mmHg 48%
    19:00 +15°C° 0 mm 1 mps 739 mmHg 55%
    20:00 +14°C° 0 mm 1 mps 739 mmHg 55%
    21:00 +14°C° 0 mm 1 mps 739 mmHg 55%
    22:00 +13°C° 0 mm 1 mps 739 mmHg 56%
    23:00 +13°C° 0 mm 1 mps 739 mmHg 56%

    Tomorrow, 25 March, Monday

    Time Temperature Precipitation Wind Pressure Humidity
    00:00 +13°C° 0 mm 1 mps 739 mmHg 57%
    01:00 +12°C° 0 mm 1 mps 739 mmHg 58%
    02:00 +12°C° 0 mm 1 mps 738 mmHg 60%
    03:00 +12°C° 0 mm 1 mps 738 mmHg 63%
    04:00 +11°C° 0 mm 1 mps 737 mmHg 65%
    05:00 +12°C° 0 mm 1 mps 737 mmHg 64%
    06:00 +12°C° 0 mm 1 mps 737 mmHg 63%
    07:00 +13°C° 0 mm 1 mps 737 mmHg 62%
    08:00 +15°C° 0 mm 1 mps 737 mmHg 57%
    09:00 +16°C° 0 mm 2 mps 736 mmHg 51%
    10:00 +18°C° 0 mm 2 mps 736 mmHg 45%
    11:00 +18°C° 0 mm 2 mps 736 mmHg 44%
    12:00 +18°C° 0 mm 2 mps 735 mmHg 44%
    13:00 +19°C° 0 mm 3 mps 735 mmHg 43%
    14:00 +18°C° 0 mm 2 mps 734 mmHg 45%
    15:00 +18°C° 0 mm 2 mps 734 mmHg 46%
    16:00 +17°C° 0 mm 2 mps 733 mmHg 48%
    17:00 +16°C° 0 mm 2 mps 733 mmHg 55%
    18:00 +14°C° 0 mm 1 mps 733 mmHg 63%
    19:00 +11°C° 0 mm 0 mps 733 mmHg 71%
    20:00 +12°C° 0 mm 1 mps 733 mmHg 71%
    21:00 +12°C° 0 mm 1 mps 733 mmHg 72%
    22:00 +11°C° 0 mm 1 mps 733 mmHg 73%
    23:00 +11°C° 0 mm 1 mps 733 mmHg 72%

    Day after tomorrow, 26 March, Tuesday

    Time Temperature Precipitation Wind Pressure Humidity
    00:00 +11°C° 0 mm 1 mps 733 mmHg 70%
    01:00 +11°C° 0 mm 1 mps 733 mmHg 69%
    02:00 +11°C° 0 mm 1 mps 733 mmHg 67%
    03:00 +10°C° 0 mm 2 mps 734 mmHg 65%
    04:00 +10°C° 0 mm 2 mps 734 mmHg 63%
    05:00 +10°C° 0 mm 2 mps 734 mmHg 62%
    06:00 +10°C° 0 mm 2 mps 734 mmHg 62%
    07:00 +11°C° 0 mm 3 mps 735 mmHg 62%
    08:00 +12°C° 0 mm 3 mps 735 mmHg 57%
    09:00 +13°C° 0 mm 3 mps 735 mmHg 52%
    10:00 +15°C° 0 mm 4 mps 736 mmHg 47%
    11:00 +15°C° 0 mm 4 mps 736 mmHg 46%
    12:00 +16°C° 0 mm 5 mps 736 mmHg 44%
    13:00 +16°C° 0 mm 5 mps 736 mmHg 42%
    14:00 +16°C° 0 mm 5 mps 736 mmHg 42%
    15:00 +15°C° 0 mm 6 mps 736 mmHg 42%
    16:00 +15°C° 0 mm 6 mps 736 mmHg 42%
    17:00 +14°C° 0 mm 6 mps 737 mmHg 46%
    18:00 +11°C° 0 mm 6 mps 737 mmHg 49%
    19:00 +10°C° 0 mm 6 mps 738 mmHg 52%
    20:00 +9°C° 0 mm 6 mps 738 mmHg 54%
    21:00 +9°C° 0 mm 6 mps 739 mmHg 55%
    22:00 +8°C° 0 mm 6 mps 739 mmHg 56%
    23:00 +8°C° 0 mm 5 mps 740 mmHg 56%

    27 March, Wednesday

    Time Temperature Precipitation Wind Pressure Humidity
    00:00 +7°C° 0 mm 5 mps 740 mmHg 56%
    01:00 +7°C° 0 mm 5 mps 740 mmHg 56%
    02:00 +7°C° 0 mm 5 mps 740 mmHg 55%
    03:00 +6°C° 0 mm 5 mps 740 mmHg 54%
    04:00 +6°C° 0 mm 5 mps 740 mmHg 53%
    05:00 +7°C° 0 mm 5 mps 740 mmHg 53%
    06:00 +7°C° 0 mm 5 mps 740 mmHg 52%
    07:00 +7°C° 0 mm 4 mps 740 mmHg 51%
    08:00 +9°C° 0 mm 5 mps 740 mmHg 47%
    09:00 +12°C° 0 mm 5 mps 740 mmHg 42%
    10:00 +14°C° 0 mm 5 mps 740 mmHg 38%
    11:00 +14°C° 0 mm 5 mps 740 mmHg 37%
    12:00 +15°C° 0 mm 5 mps 740 mmHg 36%
    13:00 +17°C° 0 mm 4 mps 740 mmHg 35%
    14:00 +17°C° 0 mm 4 mps 739 mmHg 36%
    15:00 +16°C° 0 mm 5 mps 739 mmHg 38%
    16:00 +15°C° 0 mm 5 mps 739 mmHg 39%
    17:00 +14°C° 0 mm 5 mps 740 mmHg 43%
    18:00 +13°C° 0 mm 5 mps 740 mmHg 47%
    19:00 +10°C° 0 mm 5 mps 740 mmHg 51%
    20:00 +10°C° 0 mm 5 mps 740 mmHg 54%
    21:00 +10°C° 0 mm 4 mps 740 mmHg 56%
    22:00 +10°C° 0 mm 4 mps 741 mmHg 59%
    23:00 +10°C° 0 mm 4 mps 740 mmHg 60%

    28 March, Thursday

    Time Temperature Precipitation Wind Pressure Humidity
    00:00 +8°C° 0 mm 4 mps 740 mmHg 61%
    01:00 +8°C° 0 mm 4 mps 740 mmHg 62%
    02:00 +8°C° 0 mm 4 mps 740 mmHg 63%
    03:00 +8°C° 0 mm 4 mps 740 mmHg 64%
    04:00 +8°C° 0 mm 4 mps 740 mmHg 65%
    05:00 +8°C° 0 mm 4 mps 740 mmHg 65%
    06:00 +8°C° 0 mm 5 mps 740 mmHg 64%
    07:00 +9°C° 0 mm 5 mps 741 mmHg 63%
    08:00 +10°C° 0 mm 5 mps 741 mmHg 58%
    09:00 +12°C° 0 mm 5 mps 741 mmHg 53%
    10:00 +14°C° 0 mm 5 mps 741 mmHg 48%
    11:00 +14°C° 0 mm 5 mps 741 mmHg 46%
    12:00 +15°C° 0 mm 5 mps 741 mmHg 44%
    13:00 +16°C° 0 mm 6 mps 741 mmHg 42%
    14:00 +15°C° 0 mm 6 mps 741 mmHg 42%
    15:00 +15°C° 0 mm 6 mps 741 mmHg 42%
    16:00 +15°C° 0 mm 6 mps 740 mmHg 43%
    17:00 +13°C° 0 mm 6 mps 741 mmHg 45%
    18:00 +12°C° 0 mm 5 mps 741 mmHg 47%
    19:00 +11°C° 0 mm 4 mps 742 mmHg 50%
    20:00 +10°C° 0 mm 4 mps 742 mmHg 51%
    21:00 +10°C° 0 mm 4 mps 742 mmHg 53%
    22:00 +8°C° 0 mm 4 mps 743 mmHg 54%
    23:00 +7°C° 0 mm 4 mps 743 mmHg 55%

    29 March, Friday

    Time Temperature Precipitation Wind Pressure Humidity
    00:00 +7°C° 0 mm 4 mps 743 mmHg 57%
    01:00 +6°C° 0 mm 4 mps 743 mmHg 58%
    02:00 +6°C° 0 mm 4 mps 743 mmHg 58%
    03:00 +6°C° 0 mm 4 mps 743 mmHg 59%
    04:00 +5°C° 0 mm 4 mps 743 mmHg 60%
    05:00 +6°C° 0 mm 5 mps 743 mmHg 57%
    06:00 +6°C° 0 mm 5 mps 743 mmHg 55%
    07:00 +7°C° 0 mm 5 mps 744 mmHg 52%
    08:00 +8°C° 0 mm 5 mps 744 mmHg 45%
    09:00 +10°C° 0 mm 5 mps 743 mmHg 39%
    10:00 +12°C° 0 mm 5 mps 743 mmHg 32%
    11:00 +13°C° 0 mm 5 mps 743 mmHg 31%
    12:00 +14°C° 0 mm 6 mps 743 mmHg 30%
    13:00 +15°C° 0 mm 6 mps 742 mmHg 28%
    14:00 +15°C° 0 mm 6 mps 742 mmHg 29%
    15:00 +15°C° 0 mm 6 mps 742 mmHg 30%
    16:00 +14°C° 0 mm 6 mps 742 mmHg 31%
    17:00 +13°C° 0 mm 6 mps 742 mmHg 34%
    18:00 +10°C° 0 mm 5 mps 742 mmHg 38%
    19:00 +9°C° 0 mm 5 mps 742 mmHg 41%
    20:00 +8°C° 0 mm 5 mps 743 mmHg 43%
    21:00 +8°C° 0 mm 5 mps 743 mmHg 46%
    22:00 +7°C° 0 mm 4 mps 743 mmHg 48%
    23:00 +7°C° 0 mm 4 mps 743 mmHg 50%
    Show more